When you browse on this site, cookies collect data to enhance your experience and personalize the content and advertising you see.
Visit our Privacy Policy to learn more. By continuing to use the site, you agree to this use of cookies and data.
  • In France
  • List of Countries
  • For 7 days
  • Water Temperature
  • Weather Map
  • Weather Widgets
  • user-avatar
    Login

    Hourly Weather Brisenas

    Today, 7 December, Saturday

    Time Temperature Precipitation Wind Pressure Humidity
    00:00 +16°C° 0 mm 1 mps 638 mmHg 62%
    01:00 +15°C° 0 mm 1 mps 637 mmHg 62%
    02:00 +14°C° 0 mm 1 mps 637 mmHg 61%
    03:00 +14°C° 0 mm 1 mps 637 mmHg 62%
    04:00 +13°C° 0 mm 1 mps 637 mmHg 63%
    05:00 +12°C° 0 mm 1 mps 637 mmHg 63%
    06:00 +14°C° 0 mm 1 mps 638 mmHg 62%
    07:00 +15°C° 0 mm 1 mps 639 mmHg 60%
    08:00 +16°C° 0 mm 2 mps 640 mmHg 59%
    09:00 +19°C° 0 mm 2 mps 640 mmHg 50%
    10:00 +23°C° 0 mm 1 mps 640 mmHg 41%
    11:00 +25°C° 0 mm 1 mps 641 mmHg 33%
    12:00 +27°C° 0 mm 1 mps 640 mmHg 29%
    13:00 +28°C° 0 mm 1 mps 640 mmHg 26%
    14:00 +29°C° 0 mm 1 mps 639 mmHg 23%
    15:00 +27°C° 0 mm 1 mps 639 mmHg 27%
    16:00 +24°C° 0 mm 1 mps 638 mmHg 32%
    17:00 +22°C° 0 mm 1 mps 637 mmHg 37%
    18:00 +20°C° 0 mm 1 mps 637 mmHg 40%
    19:00 +19°C° 0 mm 1 mps 638 mmHg 43%
    20:00 +16°C° 0 mm 0 mps 638 mmHg 46%
    21:00 +15°C° 0 mm 0 mps 638 mmHg 47%
    22:00 +15°C° 0 mm 1 mps 637 mmHg 48%
    23:00 +15°C° 0 mm 1 mps 637 mmHg 49%

    Tomorrow, 8 December, Sunday

    Time Temperature Precipitation Wind Pressure Humidity
    00:00 +14°C° 0 mm 1 mps 637 mmHg 50%
    01:00 +14°C° 0 mm 1 mps 636 mmHg 52%
    02:00 +13°C° 0 mm 1 mps 636 mmHg 53%
    03:00 +13°C° 0 mm 1 mps 636 mmHg 54%
    04:00 +13°C° 0 mm 1 mps 636 mmHg 56%
    05:00 +12°C° 0 mm 1 mps 636 mmHg 57%
    06:00 +14°C° 0 mm 1 mps 636 mmHg 52%
    07:00 +16°C° 0 mm 1 mps 637 mmHg 48%
    08:00 +17°C° 0 mm 0 mps 638 mmHg 44%
    09:00 +20°C° 0 mm 0 mps 639 mmHg 38%
    10:00 +23°C° 0 mm 0 mps 639 mmHg 32%
    11:00 +26°C° 0 mm 0 mps 639 mmHg 26%
    12:00 +29°C° 0 mm 1 mps 639 mmHg 24%
    13:00 +29°C° 0 mm 1 mps 638 mmHg 23%
    14:00 +29°C° 0 mm 1 mps 637 mmHg 21%
    15:00 +27°C° 0 mm 1 mps 637 mmHg 27%
    16:00 +24°C° 0 mm 1 mps 636 mmHg 32%
    17:00 +22°C° 0 mm 1 mps 635 mmHg 38%
    18:00 +21°C° 0 mm 1 mps 636 mmHg 42%
    19:00 +19°C° 0 mm 1 mps 636 mmHg 46%
    20:00 +18°C° 0 mm 1 mps 636 mmHg 50%
    21:00 +15°C° 0 mm 0 mps 636 mmHg 53%
    22:00 +15°C° 0 mm 0 mps 635 mmHg 55%
    23:00 +14°C° 0 mm 0 mps 635 mmHg 58%

    Day after tomorrow, 9 December, Monday

    Time Temperature Precipitation Wind Pressure Humidity
    00:00 +14°C° 0 mm 0 mps 635 mmHg 60%
    01:00 +13°C° 0 mm 0 mps 635 mmHg 61%
    02:00 +13°C° 0 mm 0 mps 635 mmHg 63%
    03:00 +13°C° 0 mm 0 mps 634 mmHg 65%
    04:00 +13°C° 0 mm 1 mps 634 mmHg 66%
    05:00 +13°C° 0 mm 1 mps 634 mmHg 68%
    06:00 +15°C° 0 mm 1 mps 635 mmHg 62%
    07:00 +16°C° 0 mm 0 mps 636 mmHg 57%
    08:00 +17°C° 0 mm 0 mps 637 mmHg 51%
    09:00 +20°C° 0 mm 0 mps 637 mmHg 44%
    10:00 +23°C° 0 mm 0 mps 638 mmHg 38%
    11:00 +28°C° 0 mm 1 mps 638 mmHg 31%
    12:00 +29°C° 0 mm 1 mps 637 mmHg 30%
    13:00 +29°C° 0 mm 2 mps 637 mmHg 28%
    14:00 +29°C° 0 mm 3 mps 636 mmHg 27%
    15:00 +27°C° 0 mm 2 mps 636 mmHg 34%
    16:00 +24°C° 0 mm 2 mps 635 mmHg 41%
    17:00 +22°C° 0 mm 1 mps 635 mmHg 48%
    18:00 +21°C° 0 mm 1 mps 635 mmHg 54%
    19:00 +20°C° 0 mm 1 mps 635 mmHg 59%
    20:00 +18°C° 0 mm 1 mps 635 mmHg 65%
    21:00 +18°C° 0 mm 1 mps 635 mmHg 67%
    22:00 +16°C° 0 mm 1 mps 635 mmHg 70%
    23:00 +16°C° 0 mm 1 mps 635 mmHg 72%

    10 December, Tuesday

    Time Temperature Precipitation Wind Pressure Humidity
    00:00 +15°C° 0 mm 0 mps 635 mmHg 74%
    01:00 +14°C° 0 mm 0 mps 635 mmHg 76%
    02:00 +14°C° 0 mm 0 mps 635 mmHg 78%
    03:00 +13°C° 0 mm 0 mps 635 mmHg 80%
    04:00 +13°C° 0 mm 0 mps 635 mmHg 81%
    05:00 +13°C° 0 mm 0 mps 634 mmHg 83%
    06:00 +14°C° 0 mm 0 mps 635 mmHg 77%
    07:00 +16°C° 0 mm 0 mps 636 mmHg 72%
    08:00 +17°C° 0 mm 0 mps 637 mmHg 67%
    09:00 +20°C° 0 mm 0 mps 637 mmHg 57%
    10:00 +24°C° 0 mm 1 mps 637 mmHg 48%
    11:00 +27°C° 0 mm 1 mps 638 mmHg 38%
    12:00 +27°C° 0 mm 1 mps 637 mmHg 36%
    13:00 +27°C° 0 mm 2 mps 637 mmHg 33%
    14:00 +27°C° 0 mm 2 mps 636 mmHg 30%
    15:00 +25°C° 0 mm 2 mps 636 mmHg 37%
    16:00 +24°C° 0 mm 2 mps 636 mmHg 44%
    17:00 +22°C° 0 mm 1 mps 635 mmHg 51%
    18:00 +20°C° 0 mm 1 mps 635 mmHg 55%
    19:00 +19°C° 0 mm 1 mps 635 mmHg 60%
    20:00 +18°C° 0 mm 1 mps 635 mmHg 65%
    21:00 +16°C° 0 mm 1 mps 635 mmHg 67%
    22:00 +15°C° 0 mm 1 mps 635 mmHg 69%
    23:00 +14°C° 0 mm 0 mps 635 mmHg 71%

    11 December, Wednesday

    Time Temperature Precipitation Wind Pressure Humidity
    00:00 +14°C° 0 mm 1 mps 635 mmHg 73%
    01:00 +14°C° 0 mm 1 mps 634 mmHg 75%
    02:00 +13°C° 0 mm 1 mps 634 mmHg 76%
    03:00 +13°C° 0 mm 1 mps 634 mmHg 77%
    04:00 +13°C° 0 mm 1 mps 634 mmHg 78%
    05:00 +12°C° 0 mm 1 mps 634 mmHg 79%
    06:00 +14°C° 0 mm 1 mps 635 mmHg 72%
    07:00 +15°C° 0 mm 0 mps 636 mmHg 64%
    08:00 +17°C° 0 mm 0 mps 637 mmHg 57%
    09:00 +21°C° 0 mm 1 mps 638 mmHg 50%
    10:00 +24°C° 0 mm 1 mps 638 mmHg 43%
    11:00 +27°C° 0 mm 1 mps 638 mmHg 36%
    12:00 +27°C° 0 mm 1 mps 638 mmHg 33%
    13:00 +28°C° 0 mm 1 mps 637 mmHg 29%
    14:00 +28°C° 0 mm 1 mps 637 mmHg 26%
    15:00 +26°C° 0 mm 2 mps 636 mmHg 31%
    16:00 +24°C° 0 mm 2 mps 636 mmHg 37%
    17:00 +21°C° 0 mm 2 mps 636 mmHg 42%
    18:00 +20°C° 0 mm 1 mps 636 mmHg 47%
    19:00 +18°C° 0 mm 1 mps 636 mmHg 52%
    20:00 +16°C° 0 mm 1 mps 636 mmHg 57%
    21:00 +15°C° 0 mm 1 mps 636 mmHg 59%
    22:00 +15°C° 0 mm 1 mps 636 mmHg 62%
    23:00 +14°C° 0 mm 1 mps 636 mmHg 64%

    12 December, Thursday

    Time Temperature Precipitation Wind Pressure Humidity
    00:00 +14°C° 0 mm 1 mps 636 mmHg 66%
    01:00 +14°C° 0 mm 1 mps 636 mmHg 67%
    02:00 +13°C° 0 mm 1 mps 635 mmHg 69%
    03:00 +13°C° 0 mm 1 mps 635 mmHg 70%
    04:00 +12°C° 0 mm 1 mps 635 mmHg 71%
    05:00 +12°C° 0 mm 1 mps 635 mmHg 73%
    06:00 +14°C° 0 mm 1 mps 636 mmHg 68%
    07:00 +15°C° 0 mm 1 mps 637 mmHg 63%
    08:00 +18°C° 0 mm 1 mps 637 mmHg 57%
    09:00 +21°C° 0 mm 1 mps 638 mmHg 48%
    10:00 +22°C° 0 mm 0 mps 639 mmHg 39%
    11:00 +26°C° 0 mm 0 mps 639 mmHg 30%
    12:00 +27°C° 0 mm 1 mps 638 mmHg 30%
    13:00 +27°C° 0 mm 2 mps 638 mmHg 31%
    14:00 +27°C° 0 mm 3 mps 637 mmHg 31%
    15:00 +25°C° 0 mm 2 mps 637 mmHg 37%
    16:00 +23°C° 0 mm 2 mps 636 mmHg 43%
    17:00 +21°C° 0 mm 1 mps 636 mmHg 48%
    18:00 +20°C° 0 mm 1 mps 636 mmHg 52%
    19:00 +19°C° 0 mm 1 mps 636 mmHg 56%
    20:00 +18°C° 0 mm 1 mps 636 mmHg 60%
    21:00 +16°C° 0 mm 1 mps 636 mmHg 60%
    22:00 +15°C° 0 mm 0 mps 636 mmHg 61%
    23:00 +14°C° 0 mm 0 mps 636 mmHg 62%
    Show more